Volver al catálogo

STARLINK-5188

ActivoComunicacionesVLEO
NORAD 54096·PAYLOAD·🇺🇸 United States

Lanzado Oct 20, 2022 desde Cape Canaveral Space Force Station

Loading…

Próximos Pases (próximas 24 horas)

TLE

ActualizadoSource: CelesTrak SupGP

Época: Sep 15, 2026, 02:30 UTC

1 54096C 22136AX  26258.10465278  .00477480  00000+0  22147-1 0  2588
2 54096  53.1607 202.5601 0001256  86.7740  73.5439 15.19297724    19

Sigue STARLINK-5188 en tiempo real con AllMySat

Download on the App Store